Regional Weather Roundup
Issued by NWS Green Bay, WI

Home | Current Version | Previous Version | Text Only | Print | Product List | Glossary On
Versions: 1 2 3 4 5 6 7 8 9 10 11 12 13 14 15 16 17 18 19 20 21 22 23 24 25 26 27 28 29 30 31 32 33 34 35 36 37 38 39 40 41 42 43 44 45 46 47 48 49 50
000
ASUS43 KGRB 021711
RWRGRB

NORTH-CENTRAL AND NORTHEAST WISCONSIN REGIONAL WEATHER ROUNDUP
NATIONAL WEATHER SERVICE GREEN BAY WI
1200 PM CDT MON MAY 02 2016

WIZ005-009-010>012-018-019-021800-
NORTH CENTRAL WISCONSIN

CITY           SKY/WX    TMP DP  RH WIND       PRES   REMARKS
IRONWOOD         N/A     57  32  38 N9        30.07S
MANITOWISH WTR MOSUNNY   58  33  39 NW7       30.08F
ARBOR VITAE    MOSUNNY   59  32  35 N7        30.08F
EAGLE RIVER    PTSUNNY   56  28  33 N7        30.08F
LAND O LAKES   MOSUNNY   59  28  31 N9        30.09F
RHINELANDER    CLOUDY    57  31  37 CALM      30.09S
PHILLIPS       PTSUNNY   56  33  42 NW5       30.09S
ANTIGO         MOSUNNY   56  32  40 CALM      30.08F
TOMAHAWK       CLOUDY    57  32  39 W8        30.09S
MERRILL        CLOUDY    58  33  39 NE6       30.10S
$$

WIZ013-073-021800-
NORTHEAST WISCONSIN

CITY           SKY/WX    TMP DP  RH WIND       PRES   REMARKS
IRON MOUNTAIN  SUNNY     60  27  28 N3        30.06F
MARINETTE      SUNNY     55  36  47 SE10      30.08S
OCONTO         SUNNY     59  35  40 E7        30.08S
$$

WIZ017-030-035>037-045-021800-
CENTRAL WISCONSIN

CITY           SKY/WX    TMP DP  RH WIND       PRES   REMARKS
MEDFORD        PTSUNNY   56  35  44 N3        30.09F
WAUSAU         MOSUNNY   61  31  32 SW6       30.07F
MOSINEE        PTSUNNY   59  32  36 NW6       30.11S
MARSHFIELD     PTSUNNY   58  34  40 CALM      30.09F
WISC RAPIDS    PTSUNNY   59  29  31 N6        30.11F
STEVENS POINT  PTSUNNY   57  30  36 NW7       30.10S
WAUPACA        SUNNY     62  30  29 NW6       30.10S
SHAWANO        SUNNY     62  29  29 E6        30.09S
CLINTONVILLE   SUNNY     61  28  29 E6        30.09S
WAUTOMA        SUNNY     60  29  30 NE8       30.09F
$$

WIZ038-039-048-051-021800-
FOX VALLEY

CITY           SKY/WX    TMP DP  RH WIND       PRES   REMARKS
NWS GREEN BAY  LGT RAIN  61  37  41 E8        30.09S
APPLETON       MOSUNNY   57  30  35 N8        30.08S
OSHKOSH        SUNNY     58  37  45 NE8       30.09S
FOND DU LAC    SUNNY     59  38  45 NE13      30.09F
$$

WIZ022-050-052-021800-
EAST CENTRAL WISCONSIN

CITY           SKY/WX    TMP DP  RH WIND       PRES   REMARKS
EPHRAIM        FAIR      56  34  43 N9        30.07F
STURGEON BAY   SUNNY     55  34  44 N12       30.11S
MANITOWOC      SUNNY     58  40  51 SE8G18    30.09R
SHEBOYGAN      SUNNY     56  40  55 E5        30.08F
$$

LMZ563-521-522-541>543-021800-
LAKESHORE

STATION/POSITION TIME  TEMP    WIND        PRES    VSBY  WAVE
                       AIR SEA DIR/SP/G                  HT/PER
                 (UTC) (F)     (DEG/KT/KT) (MB)    (MI)  (FT/S)
SHEBOYGAN LKSHOR 1700   43      40/  7/  8 1019.7F
KEWAUNEE LKSHORE 1600   46      50/  5/  7 1018.2R
NORTHPORT PIER   1600   46     320/  8/  9 1018.6F
N MID LAKE BUOY  1650   40 39  260/  2/  2 1018.8F         0
CHAMBERS ISLAND  1600   49      70/  4/  6 1019.0F
MENOMINEE LKSHOR 1600   46     110/  4/  4 1017.6F
$$



USA.gov is the U.S. government's official web portal to all federal, state and local government web resources and services.